国际通讯卫星 506星 (INTELSAT 506)

导读 | 豆包AI

INTELSAT 506是由国际通信卫星组织(ITSO)发射的通信卫星,于1983年5月19日升空。作为国际通信卫星体系的重要组成部分,该卫星主要承担跨洋洲际通信、广播电视信号传输等任务,服务全球多个地区的通信网络连接,在冷战后期推动了全球通信基础设施的互联互通,见证了早期商用通信卫星技术的发展,服役期间为国际通信业务提供了稳定空间传输支持。

Basic Information
目录编号:
14077
目录名称:
INTELSAT 506
国际标识:
1983-047A
轨道中心:
EARTH
卫星名称:
国际通讯卫星 506星
卫星全名:
国际通讯卫星 506星 (INTELSAT 506)
卫星状态:
在轨 (已飞行15640 天)
发射日期:
1983-05-19 UTC
国别 :
(ITSO)
星等 :
--
Orbit Information
数据来源 国际轨道数据 AOE轨道数据
星历时间 2026-03-13T18:09:51+0800
15小时前
查看轨道信息
2026-03-07T11:00:00+0800
6天前
查看轨道信息
半长轴 42479.8km 42479.258km
偏心率 0.0041033 0.0040948
轨道倾角 12.563° 12.570°
近地点辐角 351.808° 351.102°
升交点赤经 334.271° 334.311°
平近点角 270.858° 183.100°
近地点 35927.355km 35927.176km
远地点 36275.971km 36275.066km
周期 1452.223分钟 1452.196分钟
每日圈数 0.991583 0.991602
Detailed Information
卫星平台:
Intelsat V
平衡模式:
三轴稳定
覆盖范围:
全球
运营商:
国际卫星通信公司
运营商所在国:
美国
制造商(研发单位):
福特工程公司
制造商所在国:
美国
使用方式:
暂无
Satellite Introduction
从1965年4月至1984年3月,国际通信卫星组织发射了5代、6种不同性能的卫星共计35颗,除6颗卫星因运载火箭和远地点发动机故障而发射失败外,其余29颗卫星均被送到了预定的静止轨道位置。1984年8月前后,国际通信卫星组织利用部署在大西洋、太平洋、印度洋上空的15颗国际通信卫星,为遍布世界各地170多个国家或地区提供电话、电传、电报、电视和数据传输等电信业务;该卫星已退役。
2D Orbit Map
3D Orbit Map
Orbit Altitude Analysis Chart
Orbit Inclination Analysis Chart
Orbit Comprehensive Analysis Chart
View Comprehensive Chart